Meteo Giornale » Osservazioni meteo Stati Uniti (USA) » Los Angeles

ore: 14:53 - Osservazioni Meteo Los Angeles
Lat. 33° 56' N Lon. 118° 23' W Alt. 38 metri s.l.m.

poco_nuvoloso America/Los_Angeles

21 °C

Poco Nuvoloso

Temp. 24 Ore

17 °C

22 °C

Ovest

22.2 Km/h

Dew point 14 °C

Umidità 64 %

Visibilità  10 Km

Il sole sorge alle ore 06:10

Il sole tramonta alle ore 19:46

Data e Ora Cielo e Fenomeni T °C DP °C Um. % Pres. hPa Vis. km Vento km/h
Oggi h: 14:53 poco_nuvoloso Poco Nuvoloso 21 14 64 1013 10 O 22.2
Oggi h: 13:53 poco_nuvoloso Poco Nuvoloso 21 14 64 1014 10 O 18.5
Oggi h: 12:53 poco_nuvoloso Poco Nuvoloso 21 14 64 1014 10 O 18.5
Oggi h: 11:53 poco_nuvoloso Poco Nuvoloso 20 13 64 1014 10 O 16.7
Oggi h: 10:53 nuvoloso Nuvoloso 19 13 68 1015 14 O/SO 20.3
Oggi h: 09:53 nuvoloso Nuvoloso 18 13 72 1015 13 O 14.8
Oggi h: 08:53 nuvoloso Nuvoloso 18 13 72 1015 13 O 7.4
Oggi h: 07:53 molto_nuvoloso Molto Nuvoloso 17 14 82 1014 13 O/SO 11.1
Oggi h: 07:23 molto_nuvoloso Molto Nuvoloso 17 14 82 1014 14 N 5.5
Oggi h: 06:53 coperto Coperto 17 14 82 1014 10 N 7.4
Oggi h: 05:53 coperto Coperto 17 14 82 1013 14 N 0
Oggi h: 04:53 coperto Coperto 17 14 82 1013 14 O 9.3
Oggi h: 03:53 molto_nuvoloso Molto Nuvoloso 17 14 82 1013 10 O/NO 7.4
Oggi h: 02:53 molto_nuvoloso Molto Nuvoloso 17 14 82 1013 10 O 13
Oggi h: 01:53 molto_nuvoloso Molto Nuvoloso 17 14 82 1012 10 O 14.8
Oggi h: 00:53 molto_nuvoloso Molto Nuvoloso 17 14 82 1013 10 O 13
Oggi h: 00:48 nuvoloso Nuvoloso 17 14 82 1013 10 O/SO 11.1
Ieri h: 23:53 molto_nuvoloso Molto Nuvoloso 17 14 82 1013 10 O 13
Ieri h: 22:53 molto_nuvoloso Molto Nuvoloso 17 15 88 1013 10 O 14.8
Ieri h: 22:51 molto_nuvoloso Molto Nuvoloso 17 15 88 1013 10 O 16.7
Ieri h: 22:48 nuvoloso Nuvoloso 17 15 88 1013 10 O 16.7
Ieri h: 21:53 poco_nuvoloso Poco Nuvoloso 17 14 82 1013 10 O 16.7
Ieri h: 20:53 poco_nuvoloso Poco Nuvoloso 17 14 82 1013 10 O 14.8
Ieri h: 19:53 poco_nuvoloso Poco Nuvoloso 18 14 77 1012 10 O/SO 13
Ieri h: 18:53 poco_nuvoloso Poco Nuvoloso 19 15 77 1012 10 O 20.3
Ieri h: 17:53 poco_nuvoloso Poco Nuvoloso 20 14 68 1012 10 O 22.2
Ieri h: 16:53 poco_nuvoloso Poco Nuvoloso 21 14 64 1012 10 O 24
Ieri h: 15:53 poco_nuvoloso Poco Nuvoloso 22 14 60 1013 10 O 25.9